Location: Sternwarte ZA, Rosenfeld-Brittheim
(48.2889°N, 8.6789°E)
Time: 11:42:55
(UTC+02:00)

ISS - Pass Details

Date: 18 July 2018
Orbit: 402 x 408 km, 51.6° (Epoch: 21 July)

Event Time Altitude Azimuth Distance (km) Brightness Sun altitude
Exits shadow 02:22:50 - 281° (W) 1,567 -0.9 -19.7°
Reaches altitude 10° 02:23:05 10° 282° (WNW) 1,468 -1.0 -19.7°
Maximum altitude 02:26:16 45° 357° (N) 571 -2.7 -19.6°
Drops below altitude 10° 02:29:27 10° 71° (ENE) 1,472 -0.6 -19.4°
Sets 02:31:36 0° 78° (ENE) 2,334 0.4 -19.4°
